Simultaneous Nadir Overpasses (SNOs) Predictions

Prediction of SNOs between GOES-17 and METOP-B Satellite Orbit:

Table of predicted SNOs for the next 14.0 days since TLE Epoch: 4/20/2024
Index Date Time (GOES-17) GOES-17 Lat,Lon METOP-B Lat,Lon Distance(km) Time Diff (sec)
1 04/20/2024 04:11:37 -0.00,-104.69 0.59,-102.10 295.91 9
2 04/21/2024 16:29:17 0.00,-104.70 0.43,-106.66 223.42 80
3 04/22/2024 16:11:16 0.01,-104.70 -0.67,-101.67 345.91 80
4 04/24/2024 04:30:15 -0.01,-104.70 -0.39,-106.26 178.64 80
5 04/25/2024 04:06:54 -0.01,-104.70 0.73,-101.27 390.48 80
6 04/26/2024 16:25:44 0.01,-104.71 0.26,-105.84 129.25 80
7 04/27/2024 16:07:44 0.00,-104.71 -0.86,-100.85 439.43 80
8 04/29/2024 04:26:42 0.01,-104.70 -0.17,-105.45 85.93 80
9 04/30/2024 04:03:22 0.02,-104.70 0.96,-100.46 482.56 80
10 05/01/2024 16:22:11 -0.02,-104.70 0.06,-105.02 37.57 80
